QPF
0.00 0.00 0.00 0.00 0.00 0.00 0.00 0.00 0.00 0.00 0.00 0.00 0.00 0.00 0.00 0.00 0.00 0.00 0.00 0.00 0.00 0.00 0.00 0.00 0.00 0.00 0.00 0.00 0.00 0.00 0.00 0.00 0.00 0.00 0.00 0.00 0.00 0.00 0.00 0.00 0.00 0.00 0.00 0.00
0.00 0.00 0.00 0.00 0.00 0.00 0.00 0.00 0.00 0.00 0.00 0.00 0.00 0.00 0.00 0.00 0.00 0.00 0.00 0.00 0.00 0.00 0.00 0.00 0.00 0.00 0.00 0.00 0.00 0.00 0.00 0.00 0.00 0.00 0.00 0.00 0.00 0.00 0.00 0.00 0.00 0.00 0.00 0.00
0.00 0.00 0.00 0.00 0.00 0.00 0.00 0.00 0.00 0.00 0.00 0.00 0.00 0.00 0.00 0.00 0.00 0.00 0.00 0.00 0.00 0.00 0.00 0.00 0.00 0.00 0.00 0.00 0.00 0.00 0.00 0.00 0.00 0.00 0.00 0.00 0.00 0.00 0.00 0.00 0.00 0.00 0.00 0.00
0.00 0.00 0.00 0.00 0.00 0.00 0.00 0.00 0.00 0.00 0.00 0.00 0.00 0.00 0.00 0.00 0.00 0.00 0.00 0.00 0.00 0.00 0.00 0.00 0.00 0.00 0.00 0.00 0.00 0.00 0.00 0.00 0.00 0.00 0.00 0.00 0.00 0.00 0.00 0.00 0.00 0.00 0.00 0.00
0.00 0.00 0.00 0.00 0.00 0.00 0.00 0.00 0.00 0.00 0.00 0.00 0.00 0.00 0.00 0.00 0.00 0.00 0.00 0.00 0.00 0.00 0.00 0.00 0.00 0.00 0.00 0.00 0.00 0.00 0.00 0.00 0.00 0.00 0.00 0.00 0.00 0.00 0.00 0.00 0.00 0.00 0.00 0.00
0.00 0.00 0.00 0.00 0.00 0.00 0.00 0.00 0.00 0.00 0.00 0.00 0.00 0.00 0.00 0.00 0.00 0.00 0.00 0.00 0.00 0.00 0.00 0.00 0.00 0.00 0.00 0.00 0.00 0.00 0.00 0.00 0.00 0.00 0.00 0.00 0.00 0.00 0.00 0.00 0.00 0.00 0.00 0.00
0.00 0.00 0.00 0.00 0.00 0.00 0.00 0.00 0.00 0.00 0.00 0.00 0.00 0.00 0.00 0.00 0.00 0.00 0.00 0.00 0.00 0.00 0.00 0.00 0.00 0.00 0.00 0.00 0.00 0.00 0.00 0.00 0.00 0.00 0.00 0.01 0.00 0.00 0.00 0.00 0.00 0.00 0.00 0.00
0.00 0.00 0.00 0.00 0.00 0.00 0.00 0.00 0.00 0.00 0.00 0.00 0.00 0.00 0.00 0.00 0.00 0.00 0.00 0.00 0.00 0.00 0.00 0.00 0.00 0.00 0.00 0.00 0.00 0.00 0.00 0.00 0.00 0.00 0.00 0.00 0.00 0.00 0.00 0.00 0.00 0.00 0.00 0.00
0.00 0.00 0.00 0.00 0.00 0.00 0.00 0.00 0.00 0.00 0.00 0.00 0.00 0.00 0.00 0.00 0.00 0.00 0.00 0.00 0.00 0.00 0.00 0.00 0.00 0.00 0.00 0.00 0.00 0.00 0.00 0.00 0.00 0.00 0.00 0.00 0.00 0.00 0.00 0.00 0.00 0.00 0.00 0.00
0.00 0.00 0.00 0.00 0.00 0.00 0.00 0.00 0.00 0.00 0.00 0.00 0.00 0.00 0.00 0.00 0.00 0.00 0.00 0.00 0.00 0.00 0.00 0.00 0.00 0.00 0.00 0.00 0.00 0.00 0.00 0.00 0.00 0.00 0.00 0.00 0.00 0.00 0.00 0.00 0.00 0.00 0.00 0.00
0.00 0.00 0.00 0.00 0.00 0.00 0.00 0.00 0.00 0.00 0.00 0.00 0.00 0.00 0.00 0.00 0.00 0.00 0.00 0.00 0.00 0.00 0.00 0.00 0.00 0.00 0.00 0.00 0.00 0.00 0.00 0.00 0.00 0.00 0.00 0.00 0.00 0.00 0.00 0.00 0.00 0.00 0.00 0.00
0.00 0.00 0.00 0.00 0.00 0.00 0.00 0.00 0.00 0.00 0.00 0.00 0.00 0.00 0.00 0.00 0.00 0.00 0.00 0.00 0.00 0.00 0.00 0.00 0.00 0.00 0.00 0.00 0.00 0.00 0.00 0.00 0.00 0.00 0.00 0.00 0.00 0.00 0.00 0.00 0.00 0.00 0.00 0.00
0.00 0.00 0.00 0.00 0.00 0.00 0.00 0.00 0.00 0.00 0.00 0.00 0.00 0.00 0.00 0.00 0.00 0.00 0.01 0.00 0.01 0.00 0.00 0.00 0.00 0.00 0.00 0.00 0.00 0.00 0.00 0.00 0.00 0.00 0.00 0.00 0.00 0.00 0.00 0.00 0.00 0.00 0.00 0.00
0.00 0.00 0.00 0.00 0.00 0.00 0.00 0.00 0.00 0.00 0.01 0.00 0.00 0.00 0.00 0.00 0.00 0.00 0.00 0.00 0.01 0.03 0.04 0.03 0.01 0.00 0.00 0.00 0.00 0.00 0.00 0.00 0.00 0.00 0.00 0.00 0.00 0.00 0.00 0.00 0.00 0.00 0.00 0.00
0.00 0.00 0.00 0.00 0.00 0.00 0.00 0.00 0.00 0.00 0.03 0.01 0.00 0.00 0.00 0.00 0.00 0.00 0.00 0.00 0.02 0.02 0.02 0.00 0.00 0.00 0.00 0.00 0.00 0.00 0.00 0.00 0.00 0.00 0.00 0.00 0.00 0.01 0.01 0.00 0.00 0.00 0.00 0.00
0.00 0.00 0.00 0.00 0.00 0.00 0.00 0.00 0.00 0.00 0.01 0.03 0.00 0.00 0.00 0.00 0.00 0.00 0.00 0.00 0.00 0.02 0.00 0.00 0.00 0.00 0.00 0.00 0.00 0.00 0.00 0.00 0.00 0.00 0.00 0.02 0.01 0.00 0.00 0.00 0.00 0.00 0.00 0.00
0.00 0.00 0.01 0.01 0.01 0.01 0.01 0.01 0.00 0.00 0.01 0.02 0.00 0.00 0.00 0.00 0.00 0.00 0.00 0.00 0.00 0.00 0.01 0.00 0.00 0.00 0.02 0.00 0.00 0.00 0.00 0.00 0.00 0.00 0.03 0.01 0.00 0.00 0.00 0.00 0.00 0.00 0.00 0.00
0.00 0.00 0.01 0.01 0.01 0.01 0.00 0.00 0.00 0.00 0.00 0.00 0.00 0.00 0.00 0.00 0.00 0.00 0.00 0.00 0.00 0.00 0.00 0.00 0.00 0.00 0.01 0.01 0.00 0.00 0.00 0.00 0.00 0.00 0.01 0.00 0.00 0.00 0.00 0.00 0.00 0.00 0.00 0.00
0.00 0.00 0.00 0.01 0.00 0.00 0.00 0.00 0.00 0.00 0.01 0.00 0.00 0.00 0.00 0.00 0.00 0.00 0.00 0.00 0.00 0.00 0.00 0.00 0.00 0.00 0.00 0.00 0.00 0.00 0.00 0.00 0.00 0.00 0.00 0.00 0.00 0.00 0.00 0.00 0.00 0.00 0.00 0.00
0.00 0.00 0.00 0.00 0.00 0.00 0.00 0.00 0.00 0.00 0.00 0.00 0.00 0.00 0.00 0.00 0.00 0.00 0.00 0.00 0.00 0.00 0.00 0.00 0.00 0.00 0.00 0.00 0.00 0.00 0.00 0.00 0.00 0.00 0.00 0.00 0.00 0.00 0.00 0.00 0.00 0.00 0.00 0.00
0.00 0.00 0.00 0.00 0.00 0.00 0.00 0.00 0.00 0.00 0.00 0.00 0.00 0.00 0.00 0.00 0.00 0.00 0.00 0.00 0.00 0.00 0.00 0.00 0.00 0.00 0.00 0.00 0.00 0.00 0.00 0.01 0.01 0.00 0.00 0.00 0.00 0.00 0.00 0.00 0.00 0.00 0.00 0.00
0.00 0.00 0.00 0.00 0.00 0.00 0.00 0.00 0.00 0.00 0.00 0.00 0.00 0.00 0.00 0.00 0.00 0.00 0.00 0.00 0.00 0.00 0.00 0.00 0.00 0.00 0.00 0.00 0.00 0.01 0.00 0.00 0.00 0.00 0.00 0.00 0.00 0.00 0.00 0.00 0.00 0.00 0.00 0.00
0.00 0.00 0.00 0.00 0.00 0.00 0.00 0.00 0.00 0.00 0.00 0.00 0.00 0.00 0.00 0.00 0.00 0.00 0.00 0.00 0.00 0.00 0.00 0.00 0.00 0.00 0.00 0.00 0.00 0.00 0.00 0.00 0.00 0.00 0.00 0.00 0.00 0.00 0.00 0.00 0.00 0.00 0.00 0.00
0.00 0.00 0.00 0.00 0.00 0.00 0.00 0.00 0.00 0.00 0.00 0.00 0.00 0.00 0.00 0.00 0.00 0.00 0.00 0.00 0.00 0.00 0.00 0.00 0.00 0.00 0.00 0.00 0.00 0.00 0.00 0.00 0.00 0.00 0.00 0.00 0.00 0.00 0.00 0.00 0.00 0.00 0.00 0.00
0.00 0.00 0.00 0.00 0.00 0.00 0.00 0.00 0.00 0.00 0.00 0.00 0.00 0.00 0.00 0.00 0.00 0.00 0.00 0.00 0.00 0.00 0.00 0.00 0.00 0.00 0.00 0.00 0.00 0.00 0.00 0.00 0.00 0.00 0.00 0.00 0.00 0.00 0.00 0.00 0.00 0.00 0.00 0.00
0.00 0.00 0.00 0.00 0.00 0.00 0.00 0.00 0.00 0.00 0.00 0.00 0.00 0.00 0.00 0.00 0.00 0.00 0.00 0.00 0.00 0.00 0.00 0.00 0.00 0.00 0.00 0.00 0.00 0.00 0.00 0.00 0.00 0.00 0.00 0.00 0.00 0.00 0.00 0.00 0.00 0.00 0.00 0.00
0.00 0.00 0.00 0.00 0.00 0.00 0.00 0.00 0.00 0.00 0.00 0.00 0.00 0.00 0.00 0.00 0.00 0.00 0.00 0.00 0.00 0.00 0.00 0.00 0.00 0.00 0.00 0.00 0.00 0.00 0.00 0.00 0.00 0.00 0.00 0.00 0.00 0.00 0.00 0.00 0.00 0.00 0.00 0.00
MSLP
1020.33 1020.05 1019.66 1019.45 1018.84 1017.81 1017.45 1018.28 1018.79 1017.55 1017.25 1018.33 1019.58 1019.92 1019.31 1018.85 1018.46 1018.02 1018.22 1018.59 1019.20 1019.69 1019.92 1020.35 1020.56 1020.86 1020.79 1020.70 1021.06 1021.77 1022.28 1023.11 1023.15 1022.03 1020.85 1020.42 1020.75 1021.64 1022.81 1024.33 1025.00 1024.96 1023.72 1020.24
1020.44 1020.22 1019.91 1019.59 1019.33 1018.87 1018.90 1019.44 1019.21 1017.88 1017.68 1019.99 1020.72 1019.98 1019.73 1019.41 1018.94 1018.98 1018.92 1019.28 1019.57 1019.83 1020.55 1021.12 1021.10 1021.05 1020.83 1020.91 1021.27 1021.92 1022.53 1023.63 1023.99 1022.74 1021.91 1021.28 1021.78 1021.46 1022.88 1024.08 1024.75 1024.64 1023.66 1020.19
1020.46 1020.27 1019.99 1019.61 1019.31 1019.10 1019.09 1019.89 1020.30 1019.61 1019.66 1020.40 1020.53 1020.48 1020.20 1019.87 1019.42 1019.38 1019.39 1019.73 1020.05 1020.61 1021.27 1021.43 1021.60 1021.61 1021.50 1021.50 1021.63 1022.01 1022.84 1024.01 1024.59 1024.48 1023.86 1023.63 1022.92 1021.76 1022.49 1023.47 1024.14 1023.37 1021.96 1020.24
1020.47 1020.34 1020.11 1019.70 1019.10 1018.76 1018.98 1020.36 1021.21 1021.02 1022.08 1021.52 1021.14 1020.74 1020.49 1020.16 1019.91 1019.77 1019.89 1020.46 1020.84 1021.21 1021.91 1022.15 1022.43 1022.50 1022.42 1022.22 1022.38 1022.85 1023.65 1024.79 1024.92 1024.51 1024.10 1023.77 1022.77 1022.40 1022.44 1022.73 1022.22 1022.73 1021.01 1020.42
1020.54 1020.46 1020.34 1019.85 1019.05 1018.47 1019.18 1020.51 1020.97 1021.50 1022.13 1021.81 1021.58 1021.47 1021.09 1020.44 1020.33 1020.38 1020.71 1021.31 1021.68 1021.91 1022.47 1022.76 1023.02 1023.23 1023.36 1023.46 1023.35 1023.76 1024.40 1025.20 1025.73 1025.07 1024.52 1024.18 1022.70 1022.09 1021.88 1021.89 1021.63 1021.26 1020.87 1020.36
1020.60 1020.62 1020.45 1020.02 1019.28 1018.58 1019.71 1020.51 1020.70 1021.30 1022.94 1022.85 1022.62 1022.25 1021.22 1020.81 1020.54 1020.83 1020.89 1021.32 1021.84 1022.44 1022.76 1022.97 1023.17 1023.31 1023.44 1023.51 1023.90 1024.68 1025.49 1026.15 1026.88 1026.20 1025.41 1024.56 1022.59 1020.86 1020.85 1020.84 1020.62 1020.77 1020.69 1020.08
1020.68 1020.73 1020.56 1020.28 1019.96 1019.65 1020.10 1020.59 1021.18 1022.49 1023.94 1023.58 1023.02 1022.23 1021.60 1021.39 1021.20 1021.25 1021.45 1021.64 1022.12 1022.64 1022.82 1023.42 1023.77 1023.96 1023.89 1023.90 1023.82 1024.64 1025.50 1026.79 1027.43 1027.15 1026.25 1024.88 1021.13 1020.07 1019.76 1020.01 1019.91 1019.79 1019.84 1019.81
1020.67 1020.76 1020.61 1020.42 1020.29 1020.16 1020.22 1020.50 1021.24 1022.73 1024.03 1023.85 1022.97 1022.38 1021.98 1021.88 1021.92 1021.97 1021.96 1021.98 1022.27 1022.95 1024.21 1025.66 1026.35 1026.08 1025.28 1024.56 1024.45 1024.82 1025.33 1026.91 1027.73 1027.60 1026.56 1024.02 1021.40 1019.65 1019.37 1019.42 1019.46 1019.41 1019.78 1019.49
1020.76 1020.81 1020.74 1020.65 1020.51 1020.30 1020.41 1020.78 1020.96 1022.15 1023.29 1023.33 1022.44 1022.25 1022.13 1022.59 1023.13 1022.81 1022.64 1022.60 1022.99 1024.01 1026.34 1027.87 1028.62 1028.14 1027.38 1026.35 1025.55 1025.59 1026.21 1026.70 1027.40 1027.71 1026.79 1024.13 1020.49 1019.25 1018.78 1018.93 1019.23 1019.02 1019.24 1019.00
1020.65 1020.81 1020.91 1020.86 1020.83 1020.68 1020.63 1021.04 1020.81 1021.79 1023.13 1022.61 1022.04 1021.85 1022.01 1022.13 1022.84 1023.42 1023.38 1023.39 1024.00 1024.77 1027.16 1028.70 1029.34 1028.75 1027.63 1027.15 1026.44 1026.21 1026.65 1027.39 1027.45 1026.92 1025.81 1023.15 1019.91 1019.11 1018.79 1019.44 1019.04 1018.73 1018.79 1018.42
1020.50 1020.74 1020.96 1021.07 1021.09 1021.01 1020.93 1021.25 1020.88 1021.43 1022.70 1022.38 1021.69 1021.36 1021.47 1021.82 1022.33 1023.20 1023.57 1024.22 1024.90 1026.43 1027.48 1028.39 1028.73 1028.36 1027.57 1026.86 1025.83 1025.45 1025.87 1026.47 1026.43 1025.68 1024.68 1021.83 1019.52 1019.13 1019.77 1019.24 1018.49 1018.38 1017.80 1017.79
1020.18 1020.47 1020.74 1020.98 1021.11 1021.32 1021.17 1021.53 1021.30 1021.32 1022.33 1022.43 1021.78 1021.37 1021.03 1021.00 1021.30 1022.35 1023.27 1023.87 1024.35 1025.14 1026.58 1027.58 1027.83 1027.83 1027.11 1026.40 1025.50 1024.50 1024.71 1024.20 1023.72 1023.49 1021.63 1019.66 1019.19 1018.88 1018.67 1018.47 1018.15 1017.71 1017.81 1017.71
1020.02 1020.34 1020.54 1020.90 1020.99 1021.37 1021.59 1021.67 1021.68 1022.22 1023.11 1022.79 1022.29 1021.14 1020.70 1020.60 1020.79 1020.93 1022.52 1023.30 1023.01 1023.87 1023.98 1025.76 1026.54 1026.63 1025.77 1025.56 1024.25 1023.81 1023.24 1022.54 1022.31 1022.23 1019.57 1018.93 1018.82 1018.20 1017.98 1017.87 1017.95 1017.93 1018.07 1018.01
1019.78 1020.13 1020.38 1020.77 1020.84 1021.25 1021.69 1021.80 1021.82 1022.23 1023.34 1023.68 1022.20 1020.99 1020.95 1020.15 1020.29 1020.71 1021.09 1021.44 1021.87 1022.69 1023.70 1024.89 1025.74 1025.46 1024.62 1023.68 1022.77 1022.52 1022.12 1021.89 1021.07 1020.39 1019.21 1018.27 1018.32 1017.86 1017.87 1017.92 1018.16 1018.28 1018.05 1017.99
1019.50 1019.82 1020.22 1020.61 1020.73 1021.33 1021.73 1021.85 1021.63 1021.86 1022.44 1022.99 1022.78 1021.54 1020.56 1020.09 1020.18 1020.42 1020.77 1021.29 1022.15 1023.06 1023.86 1024.40 1024.17 1023.80 1023.66 1022.42 1022.05 1020.94 1020.55 1019.85 1020.03 1018.22 1017.85 1017.91 1017.13 1017.63 1017.86 1018.11 1018.48 1018.07 1018.59 1018.46
1019.17 1019.62 1020.06 1020.53 1020.87 1021.38 1021.87 1022.15 1021.60 1021.52 1021.86 1022.45 1022.76 1021.62 1021.09 1020.65 1020.45 1020.66 1020.82 1021.16 1021.81 1022.36 1023.03 1022.99 1022.45 1021.86 1021.98 1021.37 1020.05 1018.89 1018.43 1018.44 1017.94 1017.43 1017.49 1017.33 1017.46 1017.85 1018.33 1018.12 1018.28 1017.74 1017.46 1017.13
1019.07 1019.54 1019.88 1020.29 1020.68 1020.96 1021.57 1021.70 1021.42 1021.32 1021.61 1022.57 1022.93 1022.25 1021.86 1021.68 1021.42 1021.33 1021.37 1021.26 1021.48 1021.91 1022.24 1021.97 1021.99 1021.46 1021.42 1020.15 1018.85 1016.92 1017.70 1017.39 1016.99 1016.94 1017.22 1017.60 1018.13 1018.35 1018.57 1018.48 1018.01 1017.44 1017.36 1017.58
1018.98 1019.28 1019.82 1020.27 1020.68 1021.02 1021.46 1021.36 1021.30 1021.10 1022.01 1022.54 1022.80 1022.71 1022.65 1021.81 1022.57 1022.86 1022.67 1022.42 1022.23 1021.74 1021.69 1021.65 1021.35 1020.93 1020.59 1019.24 1017.54 1017.03 1016.74 1016.73 1016.88 1017.22 1017.57 1018.30 1018.57 1018.55 1018.49 1018.18 1017.91 1017.70 1017.56 1017.64
1019.05 1019.37 1019.90 1020.54 1021.23 1021.28 1021.49 1021.61 1021.40 1021.74 1022.02 1022.61 1022.81 1022.91 1022.66 1022.31 1022.69 1023.05 1023.30 1023.13 1022.98 1022.41 1022.05 1021.69 1021.42 1020.49 1019.57 1017.97 1017.54 1017.03 1017.03 1017.07 1017.25 1017.47 1018.06 1018.42 1018.72 1018.46 1018.29 1018.05 1017.72 1018.16 1017.97 1017.81
1019.43 1019.80 1020.32 1021.36 1021.69 1021.65 1022.05 1022.08 1022.34 1022.16 1022.65 1022.69 1022.56 1022.71 1022.52 1022.56 1023.14 1023.55 1024.01 1023.62 1023.53 1022.96 1022.25 1021.90 1021.23 1019.69 1018.55 1017.60 1017.06 1016.76 1016.90 1017.15 1017.53 1017.87 1018.26 1018.48 1018.93 1018.73 1018.72 1018.48 1018.34 1018.43 1018.31 1018.02
1019.78 1020.51 1021.44 1021.94 1021.88 1022.33 1022.58 1022.90 1022.91 1022.88 1023.01 1022.99 1022.76 1022.67 1022.40 1022.29 1022.90 1023.37 1023.78 1023.77 1023.90 1023.74 1023.00 1022.69 1021.54 1020.73 1018.94 1017.87 1017.57 1017.46 1017.56 1017.80 1018.12 1018.30 1018.54 1018.76 1018.96 1018.85 1018.87 1018.63 1018.52 1018.54 1018.51 1018.50
1019.72 1020.24 1021.21 1022.04 1022.36 1022.78 1023.17 1023.15 1023.29 1023.07 1022.77 1022.75 1022.55 1022.51 1022.45 1022.60 1022.80 1023.41 1024.04 1024.24 1024.38 1023.81 1023.30 1023.01 1022.10 1020.87 1019.75 1018.98 1018.82 1018.79 1018.68 1018.69 1018.82 1018.87 1018.82 1019.13 1019.12 1018.94 1018.96 1018.94 1018.65 1018.53 1018.45 1018.37
1019.73 1020.63 1021.79 1022.30 1022.94 1023.16 1023.21 1023.10 1023.08 1023.03 1022.59 1022.55 1022.70 1022.79 1022.98 1023.35 1023.71 1024.19 1024.41 1024.49 1024.18 1023.56 1023.64 1023.07 1022.14 1021.05 1020.49 1020.18 1019.89 1019.55 1019.32 1019.39 1019.37 1019.38 1019.18 1018.99 1018.78 1018.81 1018.99 1018.81 1018.51 1018.37 1018.09 1017.73
1020.93 1021.90 1022.77 1022.99 1023.30 1023.12 1022.70 1022.77 1022.74 1022.76 1022.71 1022.75 1023.09 1023.59 1024.03 1024.35 1024.74 1024.82 1025.05 1024.87 1024.49 1024.13 1023.94 1023.29 1022.24 1021.55 1021.00 1020.61 1020.50 1020.14 1019.74 1019.61 1019.54 1019.11 1018.70 1018.55 1018.61 1018.56 1018.45 1018.46 1018.37 1018.06 1017.61 1017.15
1021.90 1022.43 1023.17 1023.64 1023.34 1023.21 1023.13 1022.95 1023.03 1022.97 1022.92 1023.24 1023.98 1024.37 1024.60 1025.16 1025.63 1025.77 1025.59 1025.56 1025.16 1024.41 1023.51 1022.73 1022.19 1021.76 1021.30 1020.92 1020.71 1020.48 1020.12 1019.83 1019.46 1018.73 1018.60 1018.40 1018.16 1018.09 1017.71 1017.29 1017.02 1016.98 1016.85 1016.72
1022.59 1023.12 1023.77 1023.97 1023.78 1023.67 1023.36 1023.24 1023.43 1023.46 1023.50 1023.82 1024.31 1025.05 1025.78 1025.90 1026.05 1026.38 1025.89 1025.95 1024.94 1023.76 1022.91 1022.44 1021.97 1021.59 1021.22 1020.91 1020.65 1020.30 1019.84 1019.33 1018.90 1018.46 1018.11 1017.86 1017.65 1017.43 1016.97 1016.53 1016.48 1016.53 1016.31 1016.16
1023.52 1023.78 1023.81 1024.01 1023.98 1023.76 1023.69 1023.73 1023.47 1023.34 1024.11 1024.68 1024.78 1025.63 1025.34 1025.77 1026.27 1026.29 1025.22 1024.50 1023.46 1022.93 1022.53 1021.92 1021.61 1021.29 1020.87 1020.50 1019.97 1019.53 1019.19 1018.92 1018.46 1018.06 1017.59 1017.22 1016.73 1016.64 1016.56 1016.25 1015.80 1015.67 1015.52 1015.45
Thickness
5605 5612 5618 5624 5632 5643 5645 5637 5621 5649 5654 5629 5613 5617 5635 5637 5639 5643 5636 5631 5624 5619 5620 5613 5613 5610 5613 5621 5617 5603 5604 5582 5569 5593 5604 5611 5608 5594 5579 5538 5550 5537 5527 5567
5601 5607 5613 5619 5626 5632 5632 5625 5625 5644 5647 5598 5588 5627 5627 5626 5629 5625 5626 5623 5625 5626 5615 5603 5608 5612 5618 5616 5609 5600 5600 5571 5558 5576 5588 5591 5588 5597 5576 5554 5526 5534 5511 5549
5596 5602 5608 5615 5622 5627 5630 5620 5600 5617 5625 5619 5619 5619 5618 5616 5626 5622 5625 5623 5622 5612 5604 5606 5603 5599 5606 5608 5606 5599 5591 5576 5567 5554 5565 5562 5572 5590 5579 5559 5508 5545 5558 5558
5592 5597 5604 5611 5619 5626 5628 5613 5602 5610 5592 5602 5611 5614 5616 5612 5610 5620 5619 5610 5607 5605 5588 5589 5588 5589 5589 5593 5591 5592 5580 5563 5568 5571 5569 5566 5574 5571 5566 5558 5561 5535 5556 5555
5586 5591 5597 5606 5615 5623 5619 5607 5604 5604 5600 5610 5609 5596 5608 5611 5609 5609 5602 5596 5596 5597 5589 5587 5583 5583 5580 5576 5583 5577 5569 5547 5550 5563 5560 5553 5562 5563 5558 5554 5553 5549 5547 5547
5579 5585 5591 5598 5608 5616 5608 5606 5608 5604 5581 5590 5584 5585 5606 5606 5607 5605 5606 5600 5591 5578 5587 5588 5587 5585 5582 5579 5573 5561 5557 5529 5510 5547 5534 5530 5552 5559 5556 5555 5556 5546 5534 5540
5573 5579 5585 5590 5597 5603 5602 5602 5598 5580 5565 5559 5580 5598 5601 5596 5598 5593 5597 5596 5579 5585 5589 5582 5576 5570 5567 5564 5566 5563 5533 5511 5503 5509 5513 5523 5567 5565 5561 5550 5548 5546 5539 5533
5567 5572 5577 5582 5587 5592 5594 5596 5594 5572 5554 5558 5579 5592 5593 5590 5589 5589 5588 5591 5587 5580 5561 5540 5534 5533 5543 5549 5564 5557 5548 5515 5514 5509 5513 5529 5552 5555 5552 5540 5533 5535 5527 5526
5560 5564 5569 5574 5579 5584 5587 5587 5588 5576 5556 5562 5585 5581 5584 5563 5564 5564 5576 5577 5574 5559 5522 5506 5489 5497 5520 5538 5547 5542 5525 5505 5496 5498 5502 5518 5543 5547 5549 5539 5519 5527 5521 5516
5553 5558 5561 5565 5569 5574 5578 5576 5581 5574 5554 5571 5579 5567 5565 5570 5557 5553 5546 5564 5551 5548 5518 5498 5504 5500 5523 5513 5497 5502 5490 5497 5485 5452 5488 5494 5539 5540 5536 5495 5514 5515 5509 5508
5547 5549 5552 5556 5559 5563 5567 5566 5570 5569 5554 5562 5575 5576 5570 5564 5552 5534 5548 5542 5532 5512 5511 5501 5492 5506 5500 5505 5521 5517 5508 5484 5490 5482 5481 5501 5531 5523 5502 5506 5505 5506 5508 5496
5540 5543 5545 5547 5549 5550 5554 5554 5557 5559 5552 5555 5561 5565 5565 5563 5559 5546 5537 5538 5533 5513 5500 5494 5475 5493 5490 5479 5511 5524 5511 5508 5498 5498 5502 5524 5520 5515 5509 5502 5501 5498 5490 5486
5533 5535 5537 5538 5541 5541 5541 5544 5545 5541 5527 5537 5545 5554 5559 5557 5554 5552 5526 5513 5531 5523 5519 5495 5490 5494 5493 5503 5503 5496 5509 5516 5502 5494 5531 5521 5509 5512 5506 5500 5490 5485 5476 5466
5526 5527 5529 5529 5532 5532 5531 5531 5532 5528 5514 5506 5532 5544 5545 5550 5548 5543 5539 5538 5532 5526 5513 5494 5487 5490 5496 5497 5508 5499 5502 5501 5497 5499 5511 5508 5504 5498 5492 5488 5475 5465 5459 5450
5517 5519 5519 5519 5521 5519 5518 5520 5522 5520 5515 5502 5509 5528 5537 5540 5538 5536 5532 5527 5520 5502 5498 5488 5495 5489 5488 5489 5484 5493 5507 5509 5489 5501 5506 5493 5502 5488 5478 5467 5454 5444 5433 5430
5507 5507 5508 5509 5510 5508 5505 5506 5514 5513 5508 5498 5499 5513 5524 5526 5527 5525 5522 5518 5512 5507 5497 5492 5497 5506 5492 5488 5500 5519 5518 5507 5500 5497 5495 5488 5481 5468 5454 5448 5438 5439 5435 5429
5498 5496 5498 5499 5499 5500 5500 5500 5504 5504 5499 5485 5490 5494 5500 5505 5510 5508 5506 5506 5504 5501 5496 5492 5492 5491 5486 5474 5503 5529 5505 5497 5496 5490 5478 5470 5455 5446 5438 5433 5432 5428 5417 5406
5486 5487 5486 5485 5487 5488 5488 5492 5491 5491 5486 5478 5484 5486 5481 5492 5480 5478 5479 5478 5480 5489 5489 5479 5482 5478 5466 5475 5511 5500 5495 5489 5481 5470 5459 5446 5436 5431 5423 5419 5414 5407 5398 5389
5472 5474 5474 5472 5471 5473 5476 5476 5478 5477 5478 5471 5466 5478 5481 5477 5468 5460 5456 5459 5465 5463 5464 5468 5468 5466 5474 5482 5477 5478 5474 5467 5457 5447 5434 5426 5418 5414 5410 5406 5399 5389 5382 5374
5455 5457 5457 5450 5453 5457 5457 5457 5455 5456 5452 5454 5462 5460 5468 5469 5451 5446 5441 5435 5439 5444 5447 5444 5446 5470 5479 5472 5469 5468 5456 5444 5433 5421 5414 5408 5396 5393 5389 5383 5376 5365 5359 5356
5437 5433 5431 5436 5437 5434 5432 5432 5440 5440 5443 5439 5446 5447 5453 5450 5447 5441 5427 5429 5422 5425 5416 5428 5411 5432 5438 5447 5443 5437 5429 5420 5410 5404 5396 5387 5380 5376 5369 5364 5358 5347 5338 5333
5426 5426 5423 5418 5419 5414 5419 5423 5421 5429 5431 5431 5436 5436 5436 5429 5430 5421 5411 5411 5405 5412 5399 5402 5419 5404 5418 5420 5414 5406 5401 5397 5391 5385 5380 5371 5363 5356 5348 5341 5337 5329 5322 5316
5414 5408 5402 5406 5400 5408 5407 5416 5419 5414 5417 5420 5417 5418 5412 5409 5404 5399 5393 5397 5399 5377 5393 5401 5381 5400 5400 5394 5390 5389 5383 5377 5369 5366 5361 5355 5350 5342 5328 5325 5317 5309 5309 5310
5389 5387 5387 5389 5381 5388 5394 5399 5402 5400 5400 5402 5400 5397 5392 5386 5372 5384 5384 5370 5363 5374 5379 5360 5366 5376 5374 5372 5368 5368 5367 5356 5350 5351 5349 5341 5331 5326 5319 5316 5307 5302 5303 5302
5374 5373 5370 5369 5380 5379 5381 5382 5384 5382 5383 5385 5382 5375 5374 5360 5354 5346 5352 5345 5365 5368 5347 5343 5348 5354 5352 5353 5354 5351 5340 5338 5335 5339 5331 5325 5319 5311 5309 5309 5304 5294 5291 5288
5358 5358 5354 5358 5369 5366 5368 5369 5369 5366 5366 5359 5357 5349 5340 5343 5334 5335 5329 5325 5334 5335 5326 5333 5335 5341 5337 5336 5334 5329 5326 5325 5325 5325 5320 5315 5308 5304 5301 5299 5292 5280 5279 5278
5340 5340 5350 5352 5348 5343 5357 5348 5355 5355 5351 5333 5328 5327 5339 5329 5309 5315 5335 5325 5328 5325 5325 5328 5329 5331 5328 5324 5321 5317 5316 5315 5312 5309 5307 5302 5300 5289 5286 5281 5279 5270 5269 5269